C/2022 E3 ( ZTF )

Japanese version
Home page
Updated on May 16, 2022

---------------------------------------------------------------------

* Profile

Discovery Date March 2, 2022
Magnitude 17.2 mag
Discoverer Zwicky Transient Facility (ZTF)

* Pictures

* Orbital Elements

Epoch 2022 Jan. 21.0 TT = JDT 2459600.5
T 2023 Jan. 12.81743 TT                                 Rudenko
q   1.1124556            (2000.0)            P               Q
z  -0.0001444      Peri.  145.81394     -0.60068361     -0.07337874
 +/-0.0001463      Node   302.55616     +0.33748335     +0.87943860
e   1.0001606      Incl.  109.17288     +0.72476492     -0.47032257
From 306 observations 2022 Mar. 2-Apr. 30, mean residual 0".4.

* Finding Charts

* Magnitudes Graph

        m1 = 7.0 + 5 log d + 10.0 log r

---------------------------------------------------------------------

The orbital elements are published on M.P.E.C. 2022-H122.
The charts are made with StellaNavigator Ver.10 (AstroArts).
The magnitudes graphs are made with Comet for Windows.

---------------------------------------------------------------------

Copyright(C) Seiichi Yoshida (comet@aerith.net). All rights reserved.